This demonstration page uses our WeatherBlox Daily Observations layout. Learn more.

Left ArrowRight Arrow

39.01783, -85.05884

Hourly Observations for April 25, 2018

Temp ( °F °C ) Dew Point ( °F °C ) Humidity (%) Winds ( mph kmh ) Pressure ( in mb ) Visibility ( mi km ) Precip ( " mm )
12:44 am 00:44 Cloudy with Mist and Fog 53 11.7 52 11.1 96 96 N 8 13 29.91 1013 6 10 N/A
12:52 am 00:52 Cloudy with Mist and Fog 53 11.7 52 11.1 96 96 N 8 13 29.89 1012 6 10 N/A
1:11 am 01:11 Cloudy 53 11.7 52 11.1 96 96 NNW 8 13 29.91 1013 7 11 N/A
1:52 am 01:52 Cloudy 53 11.7 51 10.6 93 93 NNW 6 9 29.89 1012 7 11 N/A
2:52 am 02:52 Cloudy 53 11.7 51 10.6 93 93 NW 10 17 29.88 1012 7 11 N/A
3:52 am 03:52 Cloudy with Mist and Fog 53 11.7 51 10.6 93 93 NNW 9 15 29.87 1011 5 8 N/A
4:52 am 04:52 Cloudy with Mist and Fog 53 11.7 51 10.6 93 93 NNW 8 13 29.87 1012 5 8 N/A
5:38 am 05:38 Cloudy with Mist and Fog 53 11.7 51 10.6 93 93 NNW 9 15 29.88 1012 6 10 N/A
5:52 am 05:52 Cloudy with Mist and Fog 53 11.7 51 10.6 93 93 VRB 7 11 29.87 1012 6 10 N/A
6:12 am 06:12 Cloudy with Drizzle 53 11.7 51 10.6 93 93 NNW 10 17 29.88 1012 4 6 N/A
6:25 am 06:25 Cloudy with Mist and Fog 53 11.7 51 10.6 93 93 NNW 12 19 29.88 1012 6 10 N/A
6:52 am 06:52 Cloudy 53 11.7 50 10 89 89 NNW 9 15 29.89 1012 7 11 N/A
7:10 am 07:10 Cloudy 53 11.7 50 10 89 89 NNW 12 19 29.91 1013 8 13 N/A
7:52 am 07:52 Cloudy 53 11.7 50 10 89 89 N 8 13 29.91 1013 8 13 N/A
8:11 am 08:11 Cloudy 53 11.7 50 10 89 89 N 7 11 29.91 1013 8 13 N/A
8:52 am 08:52 Cloudy 54 12.2 50 10 87 87 NNW 8 13 29.93 1013 7 11 N/A
9:42 am 09:42 Cloudy 54 12.2 50 10 87 87 NNW 13 20 29.94 1014 8 13 N/A
9:52 am 09:52 Cloudy 54 12.2 50 10 87 87 NNW 14 22 29.94 1014 9 14 N/A
10:46 am 10:46 Cloudy with Drizzle 54 12 50 10 88 88 NNW 12 19 29.97 1015 3 5 N/A
10:52 am 10:52 Cloudy with Drizzle 54 12.2 51 10.6 90 90 NNW 10 17 29.96 1014 3 5 N/A
10:59 am 10:59 Cloudy with Drizzle 54 12.2 51 10.6 90 90 NNW 12 19 29.97 1015 3 5 N/A
11:22 am 11:22 Cloudy 55 12.8 51 10.6 87 87 NNW 13 20 29.97 1015 7 11 N/A
11:52 am 11:52 Cloudy 56 13.3 50 10 81 81 NNW 14 22 29.96 1014 10 16 N/A
12:20 pm 12:20 Cloudy 57 13.9 50 10 78 78 NNW 12 19 29.97 1015 10 16 N/A
12:52 pm 12:52 Cloudy 57 13.9 49 9.4 74 74 NNW 13 20 29.95 1014 10 16 N/A
1:52 pm 13:52 Cloudy 60 15.6 49 9.4 67 67 NNW 13 20 29.93 1014 10 16 N/A
1:58 pm 13:58 Cloudy 60 15.6 49 9.4 67 67 NNW 12 19 29.94 1014 10 16 N/A
2:52 pm 14:52 Cloudy 62 16.7 50 10 65 65 NNW 10 17 29.93 1013 10 16 N/A
3:52 pm 15:52 Mostly Cloudy 64 17.8 49 9.4 58 58 NW 15 24 29.92 1013 10 16 N/A
4:52 pm 16:52 Partly Cloudy 66 18.9 44 6.7 45 45 NNW 12 19 29.91 1013 10 16 N/A
5:52 pm 17:52 Mostly Cloudy 65 18.3 45 7.2 49 49 WNW 15 24 29.90 1013 10 16 N/A
6:52 pm 18:52 Mostly Cloudy 63 17.2 46 7.8 54 54 N 10 17 29.90 1013 10 16 N/A
7:52 pm 19:52 Cloudy 60 15.6 44 6.7 56 56 NNW 7 11 29.90 1013 10 16 N/A
8:52 pm 20:52 Cloudy 57 13.9 43 6.1 60 60 NW 6 9 29.91 1013 10 16 N/A
9:52 pm 21:52 Cloudy 55 12.8 43 6.1 64 64 NNW 5 7 29.92 1013 10 16 N/A
10:52 pm 22:52 Cloudy 54 12.2 42 5.6 64 64 NW 6 9 29.92 1013 10 16 N/A
11:52 pm 23:52 Cloudy 54 12.2 40 4.4 59 59 NNW 10 17 29.92 1013 10 16 N/A

Powered by AerisWeather